Hourly Weather Damianow

Today, 17 April, Saturday

Time Temperature Precipitation Wind Pressure Humidity
00:00 +3°C° 0 mm 3 mps 748 mmHg 97%
01:00 +3°C° 0 mm 3 mps 748 mmHg 97%
02:00 +3°C° 0.2 mm 3 mps 748 mmHg 97%
03:00 +3°C° 0.2 mm 3 mps 748 mmHg 97%
04:00 +4°C° 0.2 mm 2 mps 748 mmHg 98%
05:00 +4°C° 0.3 mm 2 mps 748 mmHg 97%
06:00 +4°C° 0.3 mm 2 mps 748 mmHg 97%
07:00 +5°C° 0.3 mm 2 mps 749 mmHg 97%
08:00 +5°C° 0.1 mm 2 mps 749 mmHg 95%
09:00 +6°C° 0.1 mm 2 mps 749 mmHg 93%
10:00 +6°C° 0.1 mm 2 mps 749 mmHg 92%
11:00 +7°C° 0 mm 2 mps 749 mmHg 90%
12:00 +7°C° 0 mm 2 mps 750 mmHg 88%
13:00 +7°C° 0 mm 2 mps 750 mmHg 86%
14:00 +7°C° 0 mm 2 mps 750 mmHg 86%
15:00 +8°C° 0 mm 2 mps 750 mmHg 85%
16:00 +8°C° 0 mm 2 mps 750 mmHg 84%
17:00 +7°C° 0 mm 2 mps 750 mmHg 87%
18:00 +6°C° 0 mm 2 mps 750 mmHg 90%
19:00 +6°C° 0 mm 2 mps 750 mmHg 92%
20:00 +5°C° 0 mm 2 mps 750 mmHg 93%
21:00 +5°C° 0 mm 2 mps 751 mmHg 93%
22:00 +4°C° 0 mm 2 mps 751 mmHg 94%
23:00 +4°C° 0 mm 2 mps 751 mmHg 94%

Tomorrow, 18 April, Sunday

Time Temperature Precipitation Wind Pressure Humidity
00:00 +5°C° 0 mm 1 mps 751 mmHg 93%
01:00 +4°C° 0 mm 1 mps 751 mmHg 93%
02:00 +4°C° 0 mm 1 mps 751 mmHg 92%
03:00 +4°C° 0 mm 1 mps 750 mmHg 92%
04:00 +3°C° 0 mm 1 mps 750 mmHg 92%
05:00 +5°C° 0 mm 1 mps 750 mmHg 88%
06:00 +6°C° 0 mm 1 mps 751 mmHg 84%
07:00 +7°C° 0 mm 1 mps 751 mmHg 80%
08:00 +8°C° 0 mm 1 mps 751 mmHg 75%
09:00 +10°C° 0 mm 1 mps 750 mmHg 70%
10:00 +12°C° 0 mm 1 mps 750 mmHg 65%
11:00 +12°C° 0 mm 2 mps 750 mmHg 63%
12:00 +13°C° 0 mm 2 mps 750 mmHg 61%
13:00 +13°C° 0 mm 3 mps 750 mmHg 59%
14:00 +14°C° 0 mm 2 mps 750 mmHg 65%
15:00 +13°C° 0 mm 2 mps 749 mmHg 70%
16:00 +12°C° 0 mm 2 mps 749 mmHg 75%
17:00 +12°C° 0.1 mm 2 mps 749 mmHg 78%
18:00 +10°C° 0.1 mm 2 mps 749 mmHg 81%
19:00 +10°C° 0.1 mm 3 mps 749 mmHg 84%
20:00 +9°C° 0 mm 3 mps 750 mmHg 87%
21:00 +9°C° 0 mm 3 mps 750 mmHg 89%
22:00 +8°C° 0 mm 3 mps 750 mmHg 92%
23:00 +8°C° 0 mm 3 mps 750 mmHg 91%

Day after tomorrow, 19 April, Monday

Time Temperature Precipitation Wind Pressure Humidity
00:00 +8°C° 0 mm 3 mps 750 mmHg 91%
01:00 +7°C° 0 mm 3 mps 749 mmHg 91%
02:00 +7°C° 0 mm 3 mps 749 mmHg 90%
03:00 +7°C° 0 mm 3 mps 749 mmHg 90%
04:00 +7°C° 0 mm 3 mps 749 mmHg 89%
05:00 +7°C° 0 mm 3 mps 749 mmHg 89%
06:00 +6°C° 0 mm 4 mps 749 mmHg 88%
07:00 +6°C° 0 mm 4 mps 749 mmHg 88%
08:00 +7°C° 0 mm 4 mps 749 mmHg 85%
09:00 +7°C° 0 mm 4 mps 749 mmHg 83%
10:00 +8°C° 0 mm 4 mps 749 mmHg 80%
11:00 +10°C° 0.1 mm 4 mps 749 mmHg 73%
12:00 +11°C° 0.1 mm 4 mps 749 mmHg 66%
13:00 +12°C° 0.1 mm 4 mps 749 mmHg 59%
14:00 +12°C° 0.1 mm 4 mps 748 mmHg 62%
15:00 +11°C° 0.1 mm 4 mps 748 mmHg 64%
16:00 +11°C° 0.1 mm 4 mps 748 mmHg 66%
17:00 +10°C° 0 mm 4 mps 748 mmHg 71%
18:00 +9°C° 0 mm 3 mps 748 mmHg 75%
19:00 +7°C° 0 mm 3 mps 748 mmHg 80%
20:00 +7°C° 0 mm 3 mps 748 mmHg 81%
21:00 +7°C° 0 mm 3 mps 748 mmHg 81%
22:00 +7°C° 0 mm 3 mps 748 mmHg 82%
23:00 +7°C° 0 mm 3 mps 748 mmHg 82%

20 April, Tuesday

Time Temperature Precipitation Wind Pressure Humidity
00:00 +7°C° 0 mm 3 mps 747 mmHg 82%
01:00 +6°C° 0 mm 2 mps 747 mmHg 82%
02:00 +6°C° 0 mm 2 mps 747 mmHg 80%
03:00 +6°C° 0 mm 2 mps 747 mmHg 79%
04:00 +6°C° 0 mm 2 mps 747 mmHg 78%
05:00 +6°C° 0 mm 2 mps 746 mmHg 77%
06:00 +7°C° 0 mm 2 mps 746 mmHg 77%
07:00 +7°C° 0 mm 3 mps 746 mmHg 76%
08:00 +8°C° 0.1 mm 3 mps 746 mmHg 71%
09:00 +9°C° 0.1 mm 3 mps 746 mmHg 66%
10:00 +11°C° 0.1 mm 3 mps 746 mmHg 62%
11:00 +11°C° 0.2 mm 3 mps 745 mmHg 60%
12:00 +11°C° 0.2 mm 4 mps 745 mmHg 59%
13:00 +11°C° 0.2 mm 4 mps 745 mmHg 57%
14:00 +11°C° 0.2 mm 4 mps 745 mmHg 60%
15:00 +11°C° 0.2 mm 4 mps 744 mmHg 62%
16:00 +11°C° 0.2 mm 4 mps 744 mmHg 65%
17:00 +9°C° 0.1 mm 3 mps 744 mmHg 69%
18:00 +8°C° 0.1 mm 3 mps 744 mmHg 74%
19:00 +7°C° 0.1 mm 2 mps 744 mmHg 79%
20:00 +6°C° 0 mm 2 mps 744 mmHg 80%
21:00 +6°C° 0 mm 2 mps 744 mmHg 82%
22:00 +5°C° 0 mm 2 mps 744 mmHg 84%
23:00 +5°C° 0 mm 2 mps 744 mmHg 84%

21 April, Wednesday

Time Temperature Precipitation Wind Pressure Humidity
00:00 +5°C° 0 mm 2 mps 744 mmHg 85%
01:00 +4°C° 0 mm 2 mps 744 mmHg 86%
02:00 +4°C° 0 mm 2 mps 744 mmHg 88%
03:00 +4°C° 0 mm 2 mps 743 mmHg 89%
04:00 +4°C° 0 mm 2 mps 743 mmHg 91%
05:00 +4°C° 0.1 mm 3 mps 743 mmHg 89%
06:00 +5°C° 0.1 mm 3 mps 744 mmHg 88%
07:00 +7°C° 0.1 mm 3 mps 744 mmHg 86%
08:00 +8°C° 0.1 mm 3 mps 744 mmHg 79%
09:00 +8°C° 0.1 mm 4 mps 744 mmHg 72%
10:00 +11°C° 0.1 mm 4 mps 743 mmHg 66%
11:00 +11°C° 0.1 mm 4 mps 743 mmHg 61%
12:00 +12°C° 0.1 mm 4 mps 743 mmHg 57%
13:00 +12°C° 0.1 mm 4 mps 743 mmHg 53%
14:00 +12°C° 0 mm 4 mps 743 mmHg 54%
15:00 +12°C° 0 mm 3 mps 743 mmHg 55%
16:00 +12°C° 0 mm 3 mps 743 mmHg 55%
17:00 +12°C° 0 mm 2 mps 743 mmHg 60%
18:00 +9°C° 0 mm 2 mps 743 mmHg 65%
19:00 +9°C° 0 mm 1 mps 744 mmHg 70%
20:00 +9°C° 0 mm 1 mps 744 mmHg 71%
21:00 +7°C° 0 mm 2 mps 744 mmHg 73%
22:00 +7°C° 0 mm 3 mps 744 mmHg 74%
23:00 +5°C° 0 mm 3 mps 744 mmHg 77%

22 April, Thursday

Time Temperature Precipitation Wind Pressure Humidity
00:00 +5°C° 0 mm 3 mps 744 mmHg 79%
01:00 +5°C° 0 mm 3 mps 744 mmHg 82%
02:00 +5°C° 0 mm 3 mps 744 mmHg 85%
03:00 +4°C° 0 mm 3 mps 744 mmHg 88%
04:00 +4°C° 0 mm 3 mps 744 mmHg 91%
05:00 +5°C° 0 mm 4 mps 744 mmHg 88%
06:00 +6°C° 0 mm 4 mps 745 mmHg 86%
07:00 +7°C° 0 mm 5 mps 746 mmHg 83%
08:00 +7°C° 0 mm 5 mps 746 mmHg 80%
09:00 +7°C° 0 mm 5 mps 747 mmHg 78%
10:00 +7°C° 0 mm 4 mps 748 mmHg 75%
11:00 +8°C° 0 mm 4 mps 748 mmHg 69%
12:00 +8°C° 0 mm 4 mps 749 mmHg 64%
13:00 +10°C° 0 mm 4 mps 749 mmHg 58%
14:00 +10°C° 0 mm 3 mps 749 mmHg 56%
15:00 +10°C° 0 mm 3 mps 749 mmHg 55%
16:00 +11°C° 0 mm 3 mps 750 mmHg 53%
17:00 +9°C° 0 mm 2 mps 750 mmHg 56%
18:00 +8°C° 0 mm 2 mps 750 mmHg 60%
19:00 +8°C° 0 mm 1 mps 750 mmHg 63%
20:00 +8°C° 0 mm 1 mps 751 mmHg 63%
21:00 +8°C° 0 mm 1 mps 751 mmHg 63%
22:00 +7°C° 0 mm 2 mps 751 mmHg 63%
23:00 +6°C° 0.1 mm 2 mps 751 mmHg 66%
Show more